Wind_Speed
24 25 26 26 27 27 28 28 28 29 30 32 33 34 35 36 38 39 40 41 42 42 42 42 43 43 43 43 42 42 42 43 43 43 42 41 39 37
25 26 27 27 27 28 29 30 30 31 31 33 34 36 36 37 39 40 41 42 42 43 44 44 43 43 44 45 45 44 43 42 43 44 43 42 42 40
27 27 28 28 28 29 30 30 31 32 32 33 35 37 38 39 40 41 42 43 44 44 45 46 46 45 45 46 47 47 45 44 43 44 44 44 43 41
29 29 30 30 30 31 31 31 32 32 32 33 35 37 39 40 40 41 43 44 44 45 45 46 47 48 47 47 48 49 48 47 45 45 45 44 43 43
31 31 31 32 32 33 33 33 34 34 33 33 34 37 39 41 41 42 43 44 45 46 46 47 48 49 49 48 48 49 49 49 48 47 47 46 45 44
32 33 33 33 34 35 35 35 35 35 35 34 34 35 37 39 40 41 42 43 45 46 46 47 48 49 50 49 49 49 50 50 49 49 49 48 47 46
34 34 35 35 36 36 36 36 35 35 35 34 34 34 36 38 39 40 41 42 43 44 45 46 48 49 50 51 50 50 50 51 51 51 51 50 49 48
35 36 36 37 37 37 37 36 35 35 34 34 34 34 34 36 38 39 39 40 41 44 45 46 47 48 50 51 51 52 51 51 52 52 52 52 51 50
37 37 38 38 37 37 37 36 35 34 34 33 33 33 34 35 36 38 39 40 41 43 45 45 47 48 49 50 51 52 52 52 52 53 53 52 52 52
38 38 38 38 38 37 36 35 35 34 34 33 33 33 33 34 35 36 37 39 40 42 44 44 47 48 48 49 51 52 52 53 53 53 53 53 53 53
39 39 39 38 38 38 36 35 34 34 33 32 32 32 33 34 35 36 37 38 39 41 43 44 45 48 48 48 49 51 52 53 54 54 53 53 53 53
41 41 40 39 38 38 37 36 34 34 34 33 32 32 33 34 35 36 37 37 38 40 42 43 44 47 47 48 48 50 51 53 54 54 54 54 54 54
42 42 41 40 39 38 37 36 36 35 34 33 33 33 34 35 35 36 37 37 37 38 41 43 43 45 46 47 49 50 50 52 53 54 54 54 54 55
42 42 42 41 40 39 38 37 37 36 35 34 34 34 34 35 36 36 36 36 36 37 39 41 42 44 45 45 47 49 50 51 52 53 53 53 54 54
43 43 42 42 41 40 39 38 37 36 35 35 34 34 34 35 36 36 36 36 35 36 39 40 41 42 43 44 46 48 50 51 52 52 52 52 52 53
45 44 43 43 41 40 39 39 38 37 36 35 35 35 35 35 35 35 35 36 36 35 37 39 40 41 42 43 44 46 48 49 51 51 52 51 51 51
46 44 44 43 42 41 40 39 38 37 36 35 35 34 34 34 34 34 34 34 34 34 35 37 39 40 41 41 41 43 45 47 49 50 50 51 51 51
46 45 44 43 42 40 39 39 38 37 36 35 34 33 33 32 32 32 32 33 32 33 34 36 37 38 39 39 40 41 43 45 47 49 49 49 50 50
47 46 44 43 41 40 39 37 36 35 35 33 32 31 31 30 30 30 30 30 31 32 33 34 35 36 37 37 39 41 42 43 45 46 47 48 48 50
47 46 44 42 41 39 37 36 35 34 33 32 30 30 29 29 28 27 27 27 28 29 31 33 33 34 35 36 38 39 40 42 43 45 46 46 47 48
47 45 43 41 39 37 36 34 33 32 31 30 29 28 27 27 26 25 25 25 25 26 28 29 31 32 34 34 35 37 39 41 42 43 45 46 46 47
44 42 41 39 37 35 34 33 32 30 29 28 27 26 26 26 25 24 23 23 24 25 26 27 28 30 31 32 33 35 37 39 40 41 43 44 45 45
41 39 38 37 35 34 33 32 30 28 28 27 26 25 25 24 23 23 22 21 21 22 23 25 26 27 28 29 31 33 35 37 38 39 40 41 42 43
Wind_Direction
309 306 303 299 296 292 289 286 283 279 276 272 268 263 260 257 254 251 249 248 247 245 243 243 242 241 240 238 239 238 238 238 237 236 236 235 235 235
312 309 306 302 298 294 290 287 285 281 277 274 271 267 262 258 255 253 250 248 246 246 244 243 242 241 240 239 239 237 237 237 237 236 236 235 235 236
314 312 309 306 302 299 295 292 288 284 279 274 272 269 266 261 257 254 252 250 248 247 245 243 242 242 240 239 238 237 236 235 235 235 235 235 235 236
315 313 310 308 305 302 299 296 292 288 282 277 272 269 267 263 260 256 253 251 249 248 246 244 242 241 241 239 238 237 236 236 235 235 235 235 235 235
315 313 311 309 307 304 301 298 294 291 286 280 274 270 267 265 261 258 255 252 250 248 247 245 243 241 240 240 238 237 236 236 236 235 235 234 235 236
315 314 313 311 309 306 303 300 296 293 288 283 277 272 269 266 263 259 256 253 251 249 248 246 245 243 241 240 238 237 236 236 235 235 235 234 235 235
315 314 314 313 311 308 304 301 298 294 289 285 280 275 271 267 263 260 257 255 252 250 248 246 245 244 242 241 240 238 237 236 235 235 234 234 234 235
315 314 314 313 311 309 305 302 299 295 290 286 281 277 273 268 264 261 258 255 254 252 249 247 246 244 243 241 240 239 238 237 235 235 235 234 234 235
314 314 314 313 311 309 306 302 299 295 291 286 283 279 274 270 266 263 260 257 255 253 251 248 247 245 243 242 240 240 239 238 236 235 236 236 235 234
314 313 313 312 311 310 307 303 300 296 292 288 284 280 276 273 269 266 263 260 257 255 252 249 247 245 243 242 241 240 239 238 237 236 236 236 235 233
313 313 313 312 310 308 306 303 299 297 295 290 285 281 278 275 272 268 265 262 258 256 253 249 247 245 243 242 241 240 238 237 236 235 235 235 234 233
313 313 312 311 309 307 305 303 299 297 295 292 287 283 280 277 274 270 267 264 260 256 253 250 247 245 243 242 242 240 239 237 236 234 234 234 234 233
311 311 311 310 308 306 304 302 300 297 294 291 289 285 282 279 275 272 268 265 261 257 253 251 248 245 243 242 241 240 238 237 236 235 234 234 234 233
310 310 309 308 307 305 304 302 300 297 293 290 289 285 282 280 276 273 269 265 262 258 255 251 248 246 243 241 241 240 238 236 235 235 234 233 233 233
309 308 308 307 305 304 302 301 299 297 294 290 288 286 283 281 278 274 269 265 262 259 255 251 248 246 244 241 240 239 238 236 235 234 234 233 232 232
308 307 307 306 304 303 301 300 298 297 294 291 288 286 284 282 280 275 270 266 262 259 256 252 248 246 243 242 239 238 237 236 235 234 233 232 232 232
306 306 306 305 303 302 300 299 298 296 294 291 289 287 284 283 280 276 272 267 262 258 255 251 248 245 242 240 239 238 237 236 235 234 233 232 232 232
304 304 304 303 302 301 300 298 297 296 294 292 290 288 285 283 281 278 273 268 262 256 253 250 247 244 241 239 238 237 236 235 234 234 232 231 231 232
302 302 302 301 300 299 298 297 296 295 294 292 290 288 286 284 281 278 274 268 261 255 251 249 247 244 241 239 238 237 235 234 233 233 232 231 231 231
301 300 300 299 298 297 296 296 296 295 294 292 290 289 286 284 281 278 274 269 262 256 252 249 247 244 241 239 238 237 235 233 232 231 231 231 231 230
299 298 298 297 296 295 294 294 294 293 293 292 290 289 287 285 282 279 274 269 262 255 252 248 246 244 242 239 237 235 234 232 231 231 231 231 231 231
297 296 295 295 294 294 293 293 293 291 292 292 290 289 288 286 282 276 273 270 263 256 251 247 245 243 242 240 236 234 233 232 231 230 230 229 230 230
294 293 292 293 293 292 291 291 291 290 290 290 289 288 288 286 283 278 273 269 264 257 251 247 244 242 240 238 235 233 232 231 230 229 228 228 228 227
Height
5816 5813 5811 5809 5807 5805 5803 5802 5801 5800 5798 5797 5797 5797 5798 5799 5801 5803 5805 5807 5810 5813 5816 5820 5824 5827 5831 5835 5839 5843 5848 5852 5856 5861 5865 5870 5874 5878
5810 5807 5804 5801 5799 5797 5795 5793 5792 5791 5790 5788 5787 5786 5787 5789 5790 5792 5794 5796 5799 5802 5805 5809 5813 5816 5820 5825 5829 5833 5838 5842 5847 5852 5856 5861 5865 5870
5803 5800 5797 5794 5791 5789 5786 5784 5782 5781 5780 5778 5776 5775 5776 5777 5779 5781 5783 5785 5788 5791 5794 5797 5801 5805 5810 5814 5818 5823 5828 5832 5837 5842 5847 5851 5856 5861
5797 5793 5790 5786 5783 5780 5777 5775 5772 5771 5769 5768 5766 5765 5764 5765 5766 5768 5770 5773 5776 5778 5782 5785 5789 5794 5798 5802 5807 5812 5817 5821 5826 5832 5837 5842 5847 5852
5789 5786 5782 5778 5775 5771 5768 5765 5762 5760 5758 5757 5755 5753 5753 5753 5754 5756 5758 5760 5763 5766 5769 5773 5777 5781 5786 5790 5795 5800 5806 5811 5816 5821 5826 5831 5837 5842
5782 5778 5774 5770 5766 5762 5758 5755 5751 5749 5746 5745 5744 5742 5741 5741 5742 5743 5745 5747 5750 5753 5757 5760 5764 5768 5773 5778 5784 5789 5794 5799 5804 5810 5815 5821 5826 5831
5774 5770 5766 5761 5757 5752 5748 5744 5741 5738 5735 5733 5732 5731 5730 5729 5730 5731 5733 5735 5738 5740 5744 5748 5752 5756 5760 5765 5770 5775 5781 5786 5792 5797 5803 5809 5815 5820
5766 5761 5757 5752 5747 5743 5738 5734 5730 5727 5724 5722 5721 5720 5719 5718 5718 5719 5721 5724 5726 5728 5731 5735 5738 5743 5747 5752 5757 5762 5768 5774 5779 5785 5791 5797 5803 5809
5758 5753 5748 5743 5738 5733 5729 5724 5720 5717 5714 5712 5710 5709 5708 5707 5707 5708 5709 5711 5714 5715 5718 5723 5725 5730 5734 5739 5744 5749 5755 5760 5767 5773 5779 5785 5791 5797
5749 5744 5739 5734 5728 5724 5719 5715 5710 5707 5704 5702 5700 5698 5697 5696 5696 5697 5697 5699 5702 5703 5705 5709 5712 5716 5720 5725 5730 5736 5742 5747 5753 5760 5766 5772 5779 5785
5740 5734 5729 5724 5719 5714 5710 5706 5701 5697 5694 5692 5690 5688 5686 5685 5685 5685 5686 5687 5689 5690 5692 5696 5699 5702 5707 5712 5717 5722 5728 5734 5740 5747 5753 5760 5766 5772
5730 5725 5720 5715 5709 5704 5700 5696 5692 5688 5685 5682 5680 5678 5676 5675 5674 5673 5674 5675 5676 5678 5679 5682 5686 5689 5694 5699 5704 5709 5714 5720 5727 5733 5740 5747 5753 5759
5720 5715 5709 5704 5699 5694 5690 5686 5682 5678 5675 5672 5669 5667 5665 5664 5662 5662 5662 5663 5664 5666 5667 5669 5673 5676 5681 5686 5690 5695 5701 5707 5713 5720 5727 5733 5740 5747
5710 5704 5699 5694 5689 5684 5679 5675 5671 5668 5665 5662 5659 5656 5654 5652 5651 5650 5650 5650 5652 5653 5654 5656 5660 5663 5668 5673 5678 5682 5687 5693 5700 5707 5713 5720 5727 5734
5699 5694 5688 5683 5678 5673 5669 5665 5661 5657 5654 5651 5648 5645 5643 5641 5639 5638 5638 5638 5639 5640 5642 5644 5647 5650 5655 5660 5665 5669 5674 5680 5687 5694 5700 5707 5714 5721
5688 5683 5677 5672 5667 5662 5658 5654 5650 5646 5643 5640 5637 5634 5632 5630 5627 5626 5626 5626 5627 5628 5629 5631 5634 5638 5642 5647 5652 5657 5662 5668 5674 5680 5687 5695 5701 5708
5676 5671 5666 5661 5656 5651 5647 5643 5639 5635 5632 5629 5626 5623 5621 5618 5616 5614 5614 5614 5615 5617 5617 5619 5622 5625 5630 5635 5640 5645 5650 5655 5661 5667 5675 5682 5689 5696
5664 5659 5654 5649 5644 5640 5636 5632 5627 5624 5620 5618 5615 5612 5609 5607 5605 5603 5602 5602 5603 5605 5606 5608 5610 5614 5619 5624 5629 5633 5638 5644 5649 5655 5662 5670 5678 5684
5651 5647 5642 5637 5633 5628 5624 5621 5617 5613 5610 5607 5604 5601 5599 5597 5595 5593 5592 5592 5592 5594 5595 5597 5600 5604 5608 5614 5618 5622 5627 5632 5638 5645 5651 5659 5666 5672
5638 5634 5630 5625 5621 5617 5613 5610 5606 5603 5600 5597 5594 5591 5589 5587 5585 5584 5583 5582 5582 5584 5586 5588 5591 5594 5598 5603 5607 5612 5617 5622 5628 5634 5640 5647 5654 5660
5625 5621 5617 5613 5609 5606 5602 5599 5596 5593 5590 5587 5585 5583 5580 5578 5576 5575 5574 5574 5574 5575 5577 5579 5581 5585 5588 5593 5598 5602 5607 5612 5617 5623 5630 5636 5643 5650
5611 5607 5604 5601 5597 5594 5592 5589 5586 5584 5581 5579 5576 5574 5572 5570 5568 5567 5566 5566 5566 5567 5569 5571 5573 5576 5580 5584 5588 5592 5597 5602 5607 5613 5619 5626 5632 5640
5598 5595 5592 5589 5587 5584 5581 5579 5577 5574 5572 5570 5568 5566 5564 5562 5561 5560 5559 5558 5559 5559 5561 5563 5565 5568 5571 5575 5579 5584 5588 5593 5598 5604 5610 5616 5622 5628